Location: Haulchin
(50.3172°N, 3.4360°E)
Time: 20:21:41
(UTC+00:00)

Cosmos 1570 Rocket - Pass Details

Date: 23 May 2024
Orbit: 761 x 786 km, 74.1° (Epoch: 14 June)

Event Time Altitude Azimuth Distance (km) Brightness Sun altitude
Rises 02:51:38 0° 334° (NNW) 3,265 7.5 -7.8°
Reaches altitude 10° 02:54:01 10° 333° (NNW) 2,337 6.8 -7.5°
Maximum altitude 02:59:19 73° 249° (WSW) 819 4.0 -6.9°
Drops below altitude 10° 03:04:37 10° 166° (SSE) 2,335 6.2 -6.3°
Sets 03:07:00 0° 164° (SSE) 3,262 7.0 -6.0°
